FENGYUN 1C DEB, 33625

Orbit data source: Space-Track

FENGYUN 1C DEB, 33625 is space debris in SSO originally from a launch on Mon, 10 May 1999 UTC launched from the Taiyaun Space Center, China (TSC). Fengyun 1C debris stems from the Chinese weather satellite Fengyun-1C, which was intentionally destroyed by a Chinese anti-satellite missile in 2007. This event dramatically increased the amount of space debris, with thousands of trackable fragments posing hazards to satellites and human spaceflight. The Fengyun 1C debris cloud has become a focal point in discussions about space sustainability and the need for international regulations to prevent the creation of new debris.

Loading next visibility...
Identifier
33625, 1999-025DDJ
Orbit
SSO
Country
Flag of CNCN / PRC
Related business
Manufacturer
Unknown
Mission
Spacecraft
Bus & Motor
Unknown
Mass
Unknown
Launch date (UTC)
1999-05-10 (27 years ago)
Launch vehicle
Unknown
Launch site
Taiyaun Space Center, China (TSC)
Object type
Payload
Rocket body
Debris
Shape & HBR
Unknown shape, 0.1 m
Radar Cross Section
Small (<0.1 m²)

Expand to show TLE details & history
Last TLE update: 1 week ago

TLE from 1 week ago
0 FENGYUN 1C DEB
1 33625U 99025DDJ 26248.80457551  .00001643  00000-0  23084-3 0  9995
2 33625  98.6423  16.7719 0215506  28.1796 333.0871 14.64272761652958
Epoch: 2026-09-05T19:18Z
TLE epoch observation values (Epoch: 2026-09-05T19:18:35.324Z)
Latitude
-0.00002°
Longitude
102.21593°
Altitude
547.43 km
Speed
7.66 km/s
True Right ascension
01h 07m 05s
True Declination
0° 00' 00"
Sunlit
Object was in full shadow at epoch
Visualization orbit readout
Latitude
Unknown
Longitude
Unknown
Altitude
Unknown
Speed
Unknown
Apparent Right ascension
Unknown
Apparent Declination
Unknown
Sunlit
N/A
Visualization observer readout
Local Sidereal Time
02:13:18
Azimuth
Unknown
Elevation
Unknown
Doppler factor
Unknown
Orbital elements
Apogee altitude
828.537 km
Perigee altitude
524.474 km
Semi-major axis
7,054.643 km
Eccentricity
0.02155
Inclination
98.6423°
RAAN
16.7719°
Arg. of periapsis
28.1796°
True anomaly
331.9419°
Mean anomaly
333.0871°
Eccentric anomaly
332.51728°
Mean motion
3.66295 °/min
Orbital period
98.28 mins
BSTAR
0.00023084
Loading maneuver chart data...
Computing Atmospheric mass density...

Documentation

Showing up to 5 results
|